Regional Weather Roundup
Issued by NWS

Home | Current Version | Previous Version | Graphics & Text | Print | Product List | Glossary On
Versions: 1 2 3 4 5 6 7 8 9 10 11 12 13 14 15 16 17 18 19 20 21 22 23 24 25 26 27 28 29 30 31 32 33 34 35 36 37 38 39 40 41 42 43 44 45 46 47 48 49 50
000
ASUS45 KTFX 032210
RWRMT
MONTANA REGIONAL WEATHER ROUNDUP
NATIONAL WEATHER SERVICE GREAT FALLS MT
400 PM MDT FRI JUL 03 2015

NOTE: "FAIR" INDICATES FEW OR NO CLOUDS BELOW 12000 FEET WITH NO
SIGNIFICANT WEATHER AND/OR OBSTRUCTIONS TO VISIBILITY.

MTZ001>007-043-032300-
WEST OF THE DIVIDE

CITY           SKY/WX    TMP DP  RH WIND       PRES   REMARKS
KALISPELL      CLEAR     93  43  17 MISG      29.85F
MISSOULA       SUNNY     95  34  11 NW8G18    29.88F HX  90
BUTTE          PTSUNNY   87  35  15 MISG      30.05F
MULLAN PASS    SUNNY     82  40  22 VRB7      30.14S
DEER LODGE       N/A     88  43  20 CALM      30.01F
EUREKA           N/A     95  43  16 W5        29.83F HX  91
HAMILTON         N/A     91  39  16 SE7       29.91F
PLAINS           N/A     95  46  18 W9        29.85F HX  91
RONAN            N/A     90  47  22 NE7       29.94F
THOMPSON FALLS   N/A     98  43  15 W13       29.88F HX  94
$$

MTZ008-052>055-032300-
SOUTHWEST MONTANA

CITY           SKY/WX    TMP DP  RH WIND       PRES   REMARKS
BOZEMAN        MOSUNNY   91  41  17 W8        29.96F
DILLON         MOSUNNY   92  34  13 NE10      30.00F
W YELLOWSTONE  PTSUNNY   84  32  15 W9G23     30.12F
THREE FORKS      N/A     92  41  17 SW3       29.95F
$$

MTZ009-010-012-014-046-048-049-054-032300-
EAST SLOPES AND CENTRAL MONTANA

CITY           SKY/WX    TMP DP  RH WIND       PRES   REMARKS
CUT BANK       MOSUNNY   91  36  14 W12       29.88F
GREAT FALLS    MOSUNNY   91  42  18 VRB7      29.88F
MALMSTROM AFB  MOSUNNY   92  39  15 W6G12     29.87F
HELENA         MOSUNNY   97  42  15 W10G24    29.88F HX  93
CONRAD           N/A     91  54  28 NW1       29.91F
$$

MTZ011-013-016-021-045-047-050-051-032300-
NORTH CENTRAL MONTANA

CITY           SKY/WX    TMP DP  RH WIND       PRES   REMARKS
HAVRE          MOSUNNY   96  43  16 W10       29.81F HX  92
LEWISTOWN      MOSUNNY   89  46  22 VRB3      29.94F
CHINOOK          N/A     93  46  20 CALM      29.81F
FORT BENTON      N/A     91  45  19 SE6       29.84F
$$

MTZ017>020-022>027-061-062-032300-
NORTHEAST MONTANA

CITY           SKY/WX    TMP DP  RH WIND       PRES   REMARKS
GLASGOW        SUNNY     87  52  29 S8        29.87F
JORDAN           N/A     90  49  24 VRB6      29.88F
SIDNEY         SUNNY     88  61  40 SE9       29.90F
WOLF POINT     MOSUNNY   89  59  36 E10       29.87F
MALTA            N/A     92  50  23 E2        29.83F
PLENTYWOOD       N/A     82  59  44 SW7       29.91F
POPLAR           N/A     86  61  42 E3        29.88F
SCOBEY           N/A     81  58  45 S7        29.91F
$$

MTZ028>42-056>058-032300-
SOUTHCENTRAL AND SOUTHEAST MONTANA

CITY           SKY/WX    TMP DP  RH WIND       PRES   REMARKS
BAKER          SUNNY     84  57  39 S12       29.95F
BILLINGS       MOSUNNY   90  46  21 VRB5      29.92F
LIVINGSTON     MOSUNNY   90  47  22 VRB6      29.96F
MILES CITY     SUNNY     90  51  26 VRB3      29.88F
EKALAKA          N/A     84  54  35 SE5       29.96F
FORSYTH          N/A     90  54  29 CALM      29.88F
LAUREL           N/A     91  49  23 N7        29.92F
ROUNDUP          N/A     91  47  22 E5        29.84F
$$

REGIONAL REPORTS...DAKOTAS

CITY           SKY/WX    TMP DP  RH WIND       PRES   REMARKS
WILLISTON      SUNNY     86  55  34 SW5       29.91F
MINOT          CLOUDY    82  61  48 S6        29.91F HAZE
DICKINSON      MOSUNNY   82  61  48 SE10      29.94F
BEACH          FAIR      82  57  42 SE8       29.94F
CROSBY         FAIR      81  63  54 S5        29.91F HAZE
BISMARCK       PTSUNNY   81  63  54 VRB7      29.94F HAZE
GRAND FORKS    MOSUNNY   81  59  47 N6        29.90F HAZE
FARGO          MOSUNNY   82  62  50 N7        29.90F HAZE
BUFFALO SD       N/A     85  55  35 S7        29.91F
RAPID CITY     SUNNY     80  61  52 SE9       30.00F
$$

REGIONAL REPORTS...WYOMING/IDAHO/WASHINGTON

CITY           SKY/WX    TMP DP  RH WIND       PRES   REMARKS
GILLETTE       MOSUNNY   86  51  29 E5        30.00F
SHERIDAN       SUNNY     89  49  25 SE10G16   29.95F
BUFFALO WY     MOSUNNY   84  51  31 S9        30.03F
CODY           PTSUNNY   84  50  30 NE9G17    29.99S
YELLOWSTONE LA   N/A     77  35  21 W8G20     30.24S
IDAHO FALLS    MOSUNNY   93  45  19 S14       29.96F
SALMON         SUNNY     93  36  13 E5        29.89F
BOISE          SUNNY    100  39  12 W14G21    29.86F HX  95
SPOKANE        MOSUNNY   98  36  11 SW17G28   29.86F HX  93
$$

REGIONAL REPORTS...ALBERTA

CITY           SKY/WX    TMP DP  RH WIND       PRES   REMARKS
EDMONTON       SUNNY     77  46  33 NW9       29.83F
CALGARY        MOSUNNY   84  48  28 NE13G20   29.86F
LETHBRIDGE     PTSUNNY   90  52  27 NE10G20   29.83F
MEDICINE HAT   MOSUNNY   95  52  23 W16       29.77F HX  92
WATERTON GATE    N/A     90  45  20 SW10G18     N/A
ONEFOUR          N/A     93  41  16 SW9         N/A
$$

REGIONAL REPORTS...SASKATCHEWAN

CITY           SKY/WX    TMP DP  RH WIND       PRES   REMARKS
SWIFT CURRENT  MOSUNNY   84  55  37 S13       29.84F
REGINA         PTSUNNY   84  59  42 S10       29.87F SMOKE
SASKATOON      PTSUNNY   88  54  31 SW9G20    29.79F
CYPRESS HILLS    N/A     86  46  25 SW8         N/A
ROCKGLEN         N/A     81  57  44 S12         N/A
ASSINIBOIA       N/A     81  52  36 NW15G21     N/A
$$



USA.gov is the U.S. government's official web portal to all federal, state and local government web resources and services.